Regional Weather Roundup
Issued by NWS Mt. Holly, NJ

Home | Current Version | Previous Version | Text Only | Print | Product List | Glossary On
Versions: 1 2 3 4 5 6 7 8 9 10 11 12 13 14 15 16 17 18 19 20 21 22 23 24 25 26 27
000
ASUS41 KPHI 202212
RWRPHI

REGIONAL WEATHER ROUNDUP
NATIONAL WEATHER SERVICE MOUNT HOLLY NJ
500 PM EST FRI JAN 20 2017

NOTE:  "FAIR" INDICATES FEW OR NO CLOUDS BELOW 12,000 FEET WITH NO
SIGNIFICANT WEATHER AND/OR OBSTRUCTIONS TO VISIBILITY.

 * = STATION DOES NOT REPORT PRECIPITATION (E.G. RAIN, SNOW, ETC.)
        OR FOG.

NJZ015>026-202300-
SOUTHERN NEW JERSEY

CITY           SKY/WX    TMP DP  RH WIND       PRES   REMARKS
POMONA         CLOUDY    42  40  92 CALM      29.93S
WILDWOOD*      CLOUDY    43  42  97 E6        29.92F
MILLVILLE      LGT RAIN  42  42 100 E6        29.91F FOG
WRIGHTSTOWN    CLOUDY    41  40  95 E3        29.89F
MOUNT HOLLY    CLOUDY    40  40 100 CALM      29.92F FOG
TRENTON        CLOUDY    41  40  96 SE3       29.91F FOG

$$
NJZ001>014-202300-
NORTHERN NEW JERSEY

CITY           SKY/WX    TMP DP  RH WIND       PRES   REMARKS
SUSSEX         LGT RAIN  40  38  93 CALM      29.90S FOG
ANDOVER*         N/A     39  37  92 CALM      29.89F
MORRISTOWN     LGT RAIN  41  39  93 S3        29.93S
NEWARK         LGT RAIN  42  39  89 SE5       29.93F FOG
TETERBORO      LGT RAIN  42  39  89 SW6       29.92S FOG
CALDWELL       LGT RAIN  41  39  93 CALM      29.93S FOG
SOMERVILLE     LGT RAIN  41  38  89 CALM      29.91S FOG
ALLAIRE*       LGT RAIN  41  40  96 E3        29.94F
TOMS RIVER*    LGT RAIN  42  41  96 CALM      29.93F FOG

$$
PAZ043-044-047-054-055-060>062-066>071-202300-
EASTERN PENNSYLVANIA

CITY           SKY/WX    TMP DP  RH WIND       PRES   REMARKS
PHILADELPHIA   CLOUDY    41  39  93 E3        29.92F FOG
NORTH PHILA    CLOUDY    41  39  93 SE3       29.93F FOG
BLUE BELL*     CLOUDY    37  37 100 CALM      29.90S
DOYLESTOWN     CLOUDY    40  38  93 CALM      29.90F
QUAKERTOWN*    CLOUDY    37  37 100 SE3       29.90F
PERKASIE*      CLOUDY    37  37 100 SE3       29.90F FOG
POTTSTOWN      CLOUDY    38  37  97 CALM      29.91F FOG
LANCASTER      CLOUDY    41  41 100 E6        29.87F FOG
COATESVILLE    FOG       39  39 100 SE5       29.89F VSB 1/4
READING        CLOUDY    39  39 100 CALM      29.88F FOG
ALLENTOWN      CLOUDY    40  36  86 CALM      29.90S
MOUNT POCONO   LGT RAIN  33  32  96 S5        29.82F FOG     WCI  29
HAZLETON       CLOUDY    36  34  93 SE6       29.85S FOG     WCI  31
LEHIGHTON      DRIZZLE   37  36  93 CALM      29.90S
WILKES BARRE   LGT RAIN  38  38 100 CALM      29.83S FOG

$$
DEZALL-MDZ008-012-015-019-020-202300-
DELAWARE AND EASTERN MARYLAND

CITY           SKY/WX    TMP DP  RH WIND       PRES   REMARKS
WILMINGTON     CLOUDY    41  41 100 E7        29.90F FOG
DOVER          CLOUDY    43  43 100 E7        29.89F
GEORGETOWN     CLOUDY    46  44  93 SE6       29.90F FOG
EASTON         CLOUDY    46  45  93 S3        29.93R
ABERDEEN       LGT RAIN  41  41  99 NE3       29.90F FOG
PATUXENT       CLOUDY    45  44  97 SE6       29.89S FOG
OCEAN CITY     CLOUDY    45  44  97 SE3       29.91F FOG
WALLOPS ISLAND CLOUDY    46  45  96 SE6       29.91F FOG
CAMBRIDGE      CLOUDY    45  43  93 CALM      29.90R
SALISBURY      CLOUDY    46  44  93 SE6       29.90S FOG

$$
PAZ001-021-NYZ056-072-MDZ011-DCZ001-202300-
OTHER NEARBY LOCATIONS

CITY           SKY/WX    TMP DP  RH WIND       PRES   REMARKS
HARRISBURG     CLOUDY    41  40  96 E5        29.87S FOG
STATE COLLEGE  DRZL/FOG  37  37 100 CALM      29.81R VSB 3/4
WILLIAMSPORT   CLOUDY    40  37  89 E7        29.85R FOG
BINGHAMTON     CLOUDY    36  34  92 S9        29.78S WCI  29
NEW YORK CITY  LGT RAIN  41  38  89 S3        29.95S FOG
BALTIMORE      CLOUDY    44  43  96 SE6       29.88F
WASHINGTON DC  CLOUDY    48  45  89 SE5       29.88S

$$




USA.gov is the U.S. government's official web portal to all federal, state and local government web resources and services.